FW9521 Weather Reports


time (UTC)temp
C
wind
direction
speed
KPH
gust
KPH
rain 1hr
cm
rain 24hr
cm
rain mn
cm
humidity
%
barometer
mb
20260906180545 31 198 8.0 11.3 0.00 0.36 0.08 61 1014.5
20260906180045 31 202 4.8 9.7 0.00 0.36 0.08 63 1014.6
20260906175544 31 198 8.0 14.5 0.00 0.36 0.08 62 1014.7
20260906175044 31 208 9.7 14.5 0.00 0.36 0.08 62 1014.7
20260906174045 31 188 8.0 9.7 0.00 0.36 0.08 65 1014.9
20260906173544 31 204 8.0 12.9 0.00 0.36 0.08 65 1014.9
20260906172044 30 217 6.4 14.5 0.00 0.36 0.08 69 1015.1
20260906171545 30 178 8.0 12.9 0.00 0.36 0.08 69 1015.2
20260906171044 30 196 8.0 14.5 0.00 0.36 0.08 71 1015.2
20260906170546 30 192 6.4 11.3 0.00 0.36 0.08 73 1015.3
20260906170045 30 158 6.4 12.9 0.00 0.38 0.08 73 1015.2
20260906165545 30 169 6.4 12.9 0.00 0.38 0.08 74 1015.3
20260906165044 30 220 4.8 9.7 0.00 0.38 0.08 75 1015.4
20260906164545 30 173 8.0 11.3 0.00 0.38 0.08 75 1015.5
20260906164045 29 176 4.8 9.7 0.00 0.38 0.08 74 1015.8
20260906163545 29 157 0.0 9.7 0.00 0.38 0.08 75 1015.9
20260906163044 28 204 4.8 11.3 0.00 0.38 0.08 76 1016.0
20260906162545 28 175 4.8 11.3 0.00 0.38 0.08 77 1016.0
20260906162045 28 175 0.0 8.0 0.00 0.38 0.08 78 1016.1
20260906161545 28 131 3.2 9.7 0.00 0.38 0.08 78 1016.0
20260906161044 28 185 4.8 9.7 0.00 0.38 0.08 77 1016.0
20260906160545 28 217 1.6 9.7 0.00 0.38 0.08 78 1016.4
20260906155545 28 170 3.2 12.9 0.00 0.38 0.08 78 1016.5
20260906155044 28 268 6.4 11.3 0.00 0.38 0.08 78 1016.6
20260906154545 28 194 4.8 11.3 0.00 0.38 0.08 77 1016.0
20260906154045 28 172 4.8 11.3 0.00 0.38 0.08 77 1015.9
20260906153545 28 161 8.0 12.9 0.00 0.38 0.08 76 1015.8
20260906153044 28 187 6.4 11.3 0.00 0.38 0.08 77 1015.8
20260906152545 28 173 8.0 12.9 0.00 0.38 0.08 78 1015.7
20260906152045 28 169 8.0 12.9 0.00 0.38 0.08 78 1015.7
20260906151545 28 167 8.0 12.9 0.00 0.38 0.08 78 1015.7
20260906151045 28 193 8.0 12.9 0.00 0.38 0.08 78 1015.7
20260906150545 28 169 8.0 16.1 0.00 0.38 0.08 79 1015.7
20260906150045 28 184 8.0 11.3 0.00 0.38 0.08 82 1015.7
20260906145545 28 173 4.8 11.3 0.00 0.38 0.08 82 1015.6
20260906145045 28 158 6.4 12.9 0.03 0.38 0.08 84 1015.5
20260906144044 27 156 6.4 11.3 0.08 0.38 0.08 85 1015.6
20260906143545 27 158 8.0 11.3 0.08 0.38 0.08 86 1015.7
20260906143044 27 164 8.0 14.5 0.08 0.38 0.08 86 1015.7
20260906142545 27 152 6.4 14.5 0.08 0.38 0.08 88 1015.8
20260906142045 27 153 9.7 14.5 0.08 0.38 0.08 90 1015.8
20260906141545 27 153 4.8 14.5 0.08 0.38 0.08 92 1015.9
20260906141045 27 143 8.0 16.1 0.08 0.38 0.08 94 1015.8
20260906140545 26 149 8.0 9.7 0.08 0.38 0.08 95 1015.9
20260906140045 26 154 6.4 12.9 0.08 0.38 0.08 95 1015.9
20260906135545 26 160 4.8 12.9 0.08 0.38 0.08 95 1016.0
20260906135046 26 136 8.0 14.5 0.05 0.36 0.05 95 1016.0
20260906134545 26 127 8.0 16.1 0.03 0.33 0.03 94 1015.9
20260906134045 26 157 8.0 16.1 0.00 0.30 0.00 93 1015.9
20260906133545 26 148 8.0 16.1 0.00 0.30 0.00 94 1016.0
20260906132544 26 166 4.8 9.7 0.00 0.30 0.00 96 1016.0
20260906132045 26 152 4.8 11.3 0.00 0.30 0.00 96 1015.9
20260906131045 25 124 3.2 11.3 0.00 0.30 0.00 98 1015.9
20260906130548 25 128 3.2 8.0 0.00 0.30 0.00 98 1015.9
20260906130044 25 126 4.8 8.0 0.00 0.30 0.00 98 1015.8
20260906125545 25 114 4.8 9.7 0.00 0.30 0.00 98 1015.8
20260906125045 25 132 4.8 11.3 0.00 0.30 0.00 98 1015.6
20260906124545 25 143 4.8 11.3 0.00 0.30 0.00 99 1015.5
20260906124045 25 132 4.8 11.3 0.00 0.30 0.00 99 1015.5
20260906123545 25 123 4.8 11.3 0.00 0.30 0.00 99 1015.4
20260906123046 25 131 6.4 11.3 0.00 0.30 0.00 99 1015.4
20260906122545 25 131 6.4 11.3 0.00 0.30 0.00 100 1015.4
20260906122045 25 131 4.8 9.7 0.00 0.30 0.00 100 1015.3
20260906121545 25 131 4.8 9.7 0.00 0.30 0.00 100 1015.2
20260906121045 25 132 4.8 11.3 0.00 0.30 0.00 100 1015.2
20260906120544 25 132 4.8 9.7 0.00 0.30 0.00 100 1015.2
20260906120045 25 140 4.8 9.7 0.00 0.30 0.00 100 1015.1
20260906115545 25 127 4.8 8.0 0.00 0.30 0.00 100 1014.9
20260906115045 25 104 4.8 8.0 0.00 0.30 0.00 99 1014.9
20260906114545 24 119 3.2 9.7 0.00 0.30 0.00 99 1014.8
20260906114045 25 130 3.2 9.7 0.00 0.30 0.00 99 1014.8
20260906113545 25 133 4.8 9.7 0.00 0.30 0.00 99 1014.8
20260906113045 25 118 3.2 8.0 0.00 0.30 0.00 99 1014.8
20260906112545 25 120 4.8 9.7 0.00 0.30 0.00 99 1014.8
20260906111545 25 118 3.2 8.0 0.00 0.30 0.00 98 1014.9
20260906111046 25 119 3.2 9.7 0.00 0.30 0.00 98 1014.9
20260906110545 25 132 3.2 8.0 0.00 0.30 0.00 98 1014.9
20260906105545 25 126 3.2 8.0 0.00 0.30 0.00 98 1014.9
20260906104546 25 135 4.8 8.0 0.00 0.30 0.00 97 1014.7
20260906104045 25 137 4.8 9.7 0.00 0.30 0.00 97 1014.7
20260906103545 25 149 4.8 8.0 0.00 0.30 0.00 97 1014.6
20260906103045 25 124 4.8 9.7 0.00 0.30 0.00 97 1014.5
20260906102545 25 129 4.8 8.0 0.00 0.30 0.00 97 1014.6
20260906102045 25 128 3.2 9.7 0.00 0.30 0.00 96 1014.5
20260906101546 25 141 4.8 8.0 0.00 0.30 0.00 96 1014.5
20260906101045 25 130 4.8 9.7 0.00 0.30 0.00 96 1014.4
20260906100545 25 127 3.2 9.7 0.00 0.30 0.00 96 1014.5
20260906100045 25 125 3.2 8.0 0.00 0.30 0.00 96 1014.5
20260906095546 25 91 3.2 8.0 0.00 0.30 0.00 95 1014.5
20260906095045 25 99 3.2 8.0 0.00 0.30 0.00 95 1014.4
20260906094545 25 88 3.2 4.8 0.00 0.30 0.00 94 1014.4
20260906094046 25 85 3.2 8.0 0.00 0.30 0.00 94 1014.4
20260906093545 25 58 1.6 4.8 0.00 0.30 0.00 93 1014.4
20260906093045 25 124 3.2 4.8 0.00 0.30 0.00 93 1014.4
20260906092545 25 110 3.2 4.8 0.00 0.30 0.00 92 1014.4
20260906091545 25 109 0.0 0.0 0.00 0.30 0.00 92 1014.4
20260906091045 25 109 0.0 1.6 0.00 0.30 0.00 92 1014.5
20260906090545 25 88 0.0 0.0 0.00 0.30 0.00 91 1014.4
20260906090045 25 88 0.0 1.6 0.00 0.30 0.00 91 1014.4
20260906085545 25 95 1.6 4.8 0.00 0.30 0.00 91 1014.4
20260906085045 25 59 0.0 3.2 0.00 0.30 0.00 91 1014.4
20260906084545 25 107 1.6 4.8 0.00 0.30 0.00 91 1014.4
20260906084045 25 124 1.6 4.8 0.00 0.30 0.00 91 1014.4
20260906083545 25 117 1.6 4.8 0.00 0.30 0.00 90 1014.3
20260906083045 25 103 1.6 3.2 0.00 0.30 0.00 90 1014.3
20260906082545 25 62 0.0 3.2 0.00 0.30 0.00 89 1014.2
20260906081546 26 120 3.2 4.8 0.00 0.30 0.00 89 1014.2
20260906081046 26 138 3.2 4.8 0.00 0.30 0.00 88 1014.2
20260906080546 26 142 3.2 8.0 0.00 0.30 0.00 88 1014.2
20260906080045 26 146 4.8 9.7 0.00 0.30 0.00 87 1014.1
20260906075545 26 148 4.8 9.7 0.00 0.30 0.00 87 1014.2
20260906075045 26 152 4.8 9.7 0.00 0.30 0.00 87 1014.2
20260906074545 26 153 4.8 11.3 0.00 0.30 0.00 87 1014.3
20260906074045 26 147 4.8 11.3 0.00 0.30 0.00 87 1014.2
20260906073545 26 135 6.4 12.9 0.00 0.30 0.00 87 1014.2
20260906073045 26 143 4.8 9.7 0.00 0.30 0.00 87 1014.3
20260906072545 26 143 4.8 9.7 0.00 0.30 0.00 87 1014.3
20260906072046 26 123 4.8 9.7 0.00 0.30 0.00 87 1014.3
20260906071545 26 134 4.8 9.7 0.00 0.30 0.00 87 1014.4
20260906071046 26 150 4.8 9.7 0.00 0.30 0.00 87 1014.4
20260906070545 26 144 4.8 9.7 0.00 0.30 0.00 87 1014.5
20260906070045 26 136 4.8 8.0 0.00 0.30 0.00 87 1014.5
20260906065045 26 135 3.2 8.0 0.00 0.30 0.00 87 1014.5
20260906064546 26 146 4.8 4.8 0.00 0.30 0.00 86 1014.5
20260906064045 26 145 4.8 8.0 0.00 0.30 0.00 86 1014.5
20260906063546 26 156 3.2 8.0 0.00 0.30 0.00 86 1014.6
20260906062545 26 128 1.6 4.8 0.00 0.30 0.00 85 1014.6
20260906062045 26 134 3.2 4.8 0.00 0.30 0.00 85 1014.5
20260906061545 26 133 3.2 8.0 0.00 0.30 0.00 84 1014.5
20260906061045 26 144 3.2 8.0 0.00 0.30 0.00 84 1014.5
20260906060546 26 147 3.2 8.0 0.00 0.30 0.00 83 1014.5
20260906060045 27 147 4.8 8.0 0.00 0.30 0.00 82 1014.6
20260906055546 27 146 3.2 8.0 0.00 0.30 0.00 82 1014.6
20260906055045 27 144 4.8 9.7 0.00 0.30 0.00 82 1014.7
20260906054545 27 130 4.8 9.7 0.00 0.30 0.00 81 1014.7
20260906053045 27 119 3.2 8.0 0.00 0.30 0.00 81 1014.7
20260906052545 27 118 3.2 8.0 0.00 0.30 0.00 81 1014.8
20260906051045 27 135 1.6 3.2 0.00 0.30 0.00 80 1014.7
20260906050545 27 62 1.6 4.8 0.00 0.30 0.00 79 1014.7
20260906045545 27 89 0.0 0.0 0.00 0.30 0.30 78 1014.7
20260906045045 27 89 1.6 4.8 0.00 0.30 0.30 77 1014.6
20260906044546 28 98 3.2 4.8 0.00 0.30 0.30 76 1014.6
20260906044046 28 107 3.2 8.0 0.00 0.30 0.30 76 1014.7
20260906043545 28 104 3.2 8.0 0.00 0.30 0.30 76 1014.6
20260906043045 28 96 3.2 4.8 0.00 0.30 0.30 76 1014.6
20260906042046 28 97 3.2 8.0 0.00 0.30 0.30 76 1014.7
20260906041545 28 92 3.2 8.0 0.00 0.30 0.30 76 1014.6
20260906041045 28 108 3.2 8.0 0.00 0.30 0.30 76 1014.6
20260906040046 28 95 1.6 8.0 0.00 0.30 0.30 76 1014.6
20260906035045 28 97 3.2 9.7 0.00 0.30 0.30 76 1014.6
20260906034545 28 96 3.2 11.3 0.00 0.30 0.30 75 1014.5
20260906033546 28 84 3.2 4.8 0.00 0.30 0.30 76 1014.4
20260906033046 28 82 4.8 8.0 0.00 0.30 0.30 77 1014.4
20260906032545 28 93 3.2 4.8 0.00 0.30 0.30 77 1014.4
20260906032046 28 87 3.2 8.0 0.00 0.30 0.30 77 1014.2
20260906031045 28 86 3.2 8.0 0.00 0.30 0.30 78 1014.1
20260906030545 28 101 3.2 8.0 0.00 0.30 0.30 78 1013.9
20260906030045 28 75 1.6 8.0 0.00 0.30 0.30 77 1013.7
20260906025545 28 93 3.2 8.0 0.00 0.30 0.30 77 1013.6
20260906025046 28 90 3.2 8.0 0.00 0.30 0.30 77 1013.7
20260906024545 28 79 4.8 8.0 0.00 0.30 0.30 77 1013.5
20260906024046 28 91 4.8 4.8 0.00 0.30 0.30 77 1013.5
20260906023046 28 77 3.2 8.0 0.00 0.30 0.30 77 1013.5
20260906022545 28 93 3.2 8.0 0.00 0.30 0.30 77 1013.4
20260906022046 29 88 3.2 4.8 0.00 0.30 0.30 77 1013.2
20260906021546 29 47 0.0 4.8 0.00 0.30 0.30 76 1013.2
20260906021045 29 74 3.2 8.0 0.00 0.30 0.30 76 1013.1
20260906020545 29 72 1.6 4.8 0.00 0.30 0.30 75 1013.0
20260906020046 29 76 3.2 4.8 0.00 0.30 0.30 75 1012.8
20260906015546 30 76 3.2 4.8 0.00 0.30 0.30 74 1012.6
20260906015046 30 81 3.2 4.8 0.00 0.30 0.30 74 1012.7
20260906014545 30 63 1.6 4.8 0.00 0.30 0.30 73 1012.7
20260906014045 30 67 1.6 3.2 0.00 0.30 0.30 72 1012.6
20260906013545 30 44 0.0 4.8 0.00 0.30 0.30 71 1012.5
20260906013045 30 72 3.2 4.8 0.00 0.30 0.30 70 1012.4
20260906012546 30 62 0.0 3.2 0.00 0.30 0.30 68 1012.3
20260906012045 30 80 0.0 4.8 0.00 0.30 0.30 68 1012.3
20260906011545 30 92 1.6 4.8 0.00 0.30 0.30 67 1012.1
20260906011046 31 77 1.6 4.8 0.00 0.30 0.30 66 1012.1
20260906010045 31 66 3.2 8.0 0.00 0.30 0.30 66 1012.0
20260906005545 31 51 0.0 8.0 0.00 0.30 0.30 66 1011.9
20260906005045 31 116 1.6 8.0 0.00 0.30 0.30 65 1011.8
20260906004046 31 101 1.6 3.2 0.00 0.30 0.30 64 1012.0
20260906003545 31 102 0.0 4.8 0.00 0.30 0.30 64 1012.0
20260906002545 32 82 1.6 3.2 0.00 0.30 0.30 63 1012.0
20260906002045 32 68 0.0 3.2 0.00 0.30 0.30 63 1012.0
20260906001546 32 41 1.6 4.8 0.00 0.30 0.30 62 1012.1
20260906001045 32 64 0.0 0.0 0.00 0.30 0.30 62 1012.0
20260906000546 32 64 0.0 0.0 0.00 0.30 0.30 60 1012.0
20260906000046 32 64 1.6 8.0 0.00 0.30 0.30 60 1012.0
20260905235546 33 150 4.8 9.7 0.03 0.30 0.30 59 1011.9
20260905235045 33 116 3.2 11.3 0.08 0.30 0.30 59 1012.0
20260905234545 33 141 4.8 11.3 0.10 0.30 0.30 59 1012.0
20260905234046 33 132 4.8 9.7 0.10 0.30 0.30 58 1012.0
20260905233546 33 151 6.4 12.9 0.10 0.30 0.30 58 1012.0
20260905233045 33 141 6.4 12.9 0.10 0.30 0.30 58 1011.9
20260905232046 33 146 6.4 12.9 0.10 0.30 0.30 58 1012.0
20260905231546 33 131 6.4 11.3 0.10 0.30 0.30 58 1012.0
20260905231046 32 157 4.8 14.5 0.10 0.30 0.30 59 1012.0
20260905230546 32 137 6.4 12.9 0.10 0.30 0.30 59 1012.0
20260905225546 33 155 4.8 12.9 0.10 0.28 0.28 58 1012.0
20260905224546 33 164 9.7 19.3 0.05 0.20 0.20 55 1011.9
20260905224046 33 142 9.7 20.9 0.08 0.20 0.20 54 1011.8
20260905223546 33 146 8.0 16.1 0.08 0.20 0.20 56 1011.8
20260905223046 33 131 6.4 12.9 0.08 0.20 0.20 56 1011.8
20260905222546 33 159 9.7 16.1 0.08 0.20 0.20 55 1011.8
20260905222045 33 162 6.4 16.1 0.08 0.20 0.20 54 1011.8
20260905221545 33 158 9.7 14.5 0.08 0.20 0.20 57 1011.8
20260905221047 33 158 4.8 12.9 0.08 0.20 0.20 57 1011.9
20260905220546 33 103 4.8 14.5 0.08 0.20 0.20 59 1011.9
20260905220045 33 153 4.8 12.9 0.08 0.20 0.20 59 1012.0
20260905215546 33 151 8.0 12.9 0.05 0.18 0.18 58 1012.0
20260905215045 33 79 3.2 14.5 0.03 0.15 0.15 57 1011.9
20260905214046 33 98 4.8 9.7 0.00 0.13 0.13 56 1012.1
20260905213546 33 118 8.0 16.1 0.00 0.13 0.13 54 1012.2
20260905213046 33 90 6.4 16.1 0.00 0.13 0.13 54 1012.3
20260905212545 33 116 8.0 14.5 0.00 0.13 0.13 55 1012.3
20260905212045 33 93 8.0 14.5 0.00 0.13 0.13 55 1012.4
20260905211546 33 127 4.8 11.3 0.00 0.13 0.13 57 1012.4
20260905211047 33 135 9.7 14.5 0.08 0.13 0.13 54 1012.5
20260905210545 33 116 4.8 14.5 0.10 0.13 0.13 55 1012.6
20260905210046 33 118 8.0 12.9 0.10 0.13 0.13 56 1012.7
20260905205546 33 90 4.8 12.9 0.10 0.13 0.13 56 1012.8
20260905205046 33 92 6.4 11.3 0.10 0.13 0.13 54 1012.9
20260905203546 32 131 8.0 14.5 0.10 0.13 0.13 56 1013.1
20260905203046 32 66 6.4 14.5 0.10 0.13 0.13 56 1013.3
20260905202545 32 94 8.0 19.3 0.10 0.13 0.13 57 1013.4
20260905202046 32 84 8.0 14.5 0.10 0.13 0.13 58 1013.5
20260905201046 32 8 6.4 14.5 0.03 0.05 0.05 55 1013.6
20260905200045 33 80 8.0 16.1 0.00 0.03 0.03 54 1013.6
20260905195546 33 96 8.0 16.1 0.00 0.03 0.03 54 1013.7
20260905195045 33 60 4.8 19.3 0.00 0.03 0.03 56 1013.7
20260905194546 32 63 3.2 12.9 0.00 0.03 0.03 55 1013.7
20260905193546 32 66 9.7 20.9 0.00 0.03 0.03 55 1013.9
20260905193046 32 59 11.3 20.9 0.00 0.03 0.03 55 1014.0
20260905192046 32 91 9.7 16.1 0.00 0.03 0.03 58 1014.3
20260905191546 32 101 8.0 19.3 0.00 0.03 0.03 57 1014.3
20260905191046 32 88 11.3 22.5 0.00 0.03 0.03 56 1014.4
20260905190546 32 67 8.0 14.5 0.00 0.03 0.03 58 1014.6
20260905190047 32 59 11.3 20.9 0.00 0.03 0.03 57 1014.7
20260905185046 32 3 9.7 20.9 0.00 0.03 0.03 58 1014.8
20260905184546 33 76 8.0 19.3 0.00 0.03 0.03 59 1014.9
20260905184046 33 73 11.3 19.3 0.00 0.03 0.03 57 1014.9
20260905183546 33 8 4.8 19.3 0.00 0.03 0.03 59 1015.0
20260905183046 33 69 11.3 20.9 0.00 0.03 0.03 58 1014.9
20260905182546 33 42 6.4 16.1 0.00 0.03 0.03 57 1015.0
20260905182046 33 39 9.7 16.1 0.00 0.03 0.03 55 1014.9